Flag Weather past 2 weeks in Samara, Russia

Now
25 °F

Ice fog.


Feels Like: 16 °F
Forecast: 26 / 32 °F
Wind: 8 mph from Northwest

Location: Samara

Current Time: Nov 21, 2014 at 8:39:28 AM

Latest Report: Nov 21, 2014 at 7:30 AM


Visibility: 3 mi

Pressure: 30.51 "Hg

Humidity: 86%

Dew point: 21 °F

Location of SamaraLocation

Historic Weather in Samara — Graph

°F

Samara temperature yesterday

Maximum temperature yesterday: 25 °F (at 3:30 PM)
Minimum temperature yesterday: 19 °F (at 12:00 AM)
Average temperature yesterday: 23 °F

Past Weeks' High & Low Weather Summary

 TemperatureHumidityPressure
High43 °F (Nov 10, 11:30 AM)100% (Nov 6, 1:00 PM)30.69 "Hg (Nov 6, 1:00 PM)
Low9 °F (Nov 18, 3:00 AM)68% (Nov 17, 1:30 PM)30.07 "Hg (Nov 6, 7:00 AM)
Average29 °F83%30.42 "Hg
* Reported Nov 6 7:00 AM — Nov 21 7:00 AM, Samara, Weather by CustomWeather, © 2014

Note: Actual official high and low records may vary slightly from our data, if they occured in-between our weather recording intervals... More about our weather records

Advertising

Samara weather history for previous 24 hours

 ConditionsComfort  
Time TempWeatherWind HumidityBarometerVisibility
7:00 AM
Nov 21
25 °FIce fog.8 mph86%30.51 "Hg2 mi
6:30 AM27 °FIce fog.6 mph80%30.51 "Hg2 mi
6:00 AM27 °FIce fog.6 mph80%30.51 "Hg2 mi
5:30 AM25 °FIce fog.6 mph86%30.48 "Hg2 mi
5:00 AM27 °FIce fog.6 mph80%30.51 "Hg3 mi
4:30 AM27 °FIce fog.8 mph80%30.51 "Hg2 mi
4:00 AM27 °FIce fog.8 mph80%30.51 "Hg2 mi
3:30 AM27 °FIce fog.8 mph80%30.51 "Hg2 mi
3:00 AM27 °FIce fog.8 mph80%30.51 "Hg2 mi
2:30 AM27 °FIce fog.6 mph80%30.51 "Hg2 mi
2:00 AM27 °FIce fog.6 mph80%30.51 "Hg2 mi
1:30 AM27 °FIce fog.6 mph80%30.51 "Hg2 mi
1:00 AM25 °FIce fog.8 mph86%30.51 "Hg2 mi
12:30 AM25 °FIce fog.6 mph86%30.51 "Hg2 mi
12:00 AM25 °FIce fog.6 mph93%30.51 "Hg2 mi
11:30 PM
Nov 20
25 °FIce fog.6 mph86%30.51 "Hg1 mi
11:00 PM25 °FIce fog.6 mph86%30.51 "Hg1 mi
10:30 PM25 °FIce fog.6 mph86%30.51 "Hg2 mi
10:00 PM25 °FMostly cloudy.6 mph80%30.51 "HgN/A
9:30 PM25 °FMostly cloudy.3 mph80%30.51 "HgN/A
9:00 PM25 °FMostly cloudy.6 mph80%30.51 "HgN/A
8:30 PM25 °FMostly cloudy.3 mph80%30.51 "HgN/A
8:00 PM25 °FMostly cloudy.6 mph80%30.51 "HgN/A
7:30 PM25 °FMostly cloudy.3 mph80%30.51 "HgN/A
7:00 PM25 °FMostly cloudy.3 mph80%30.51 "HgN/A
6:30 PM25 °FMostly cloudy.6 mph80%30.51 "HgN/A
6:00 PM25 °FMostly cloudy.6 mph80%30.51 "HgN/A
5:30 PM25 °FMostly cloudy.6 mph74%30.51 "HgN/A
5:00 PM25 °FMostly cloudy.3 mph74%30.51 "HgN/A
4:30 PM25 °FMostly cloudy.6 mph74%30.51 "HgN/A
4:00 PM25 °FMostly cloudy.6 mph74%30.51 "HgN/A
3:30 PM25 °FMostly cloudy.6 mph74%30.51 "HgN/A
3:00 PM23 °FMostly cloudy.6 mph80%30.51 "HgN/A
2:30 PM23 °FMostly cloudy.6 mph80%30.51 "HgN/A
2:00 PM23 °FMostly cloudy.6 mph80%30.51 "HgN/A
1:30 PM23 °FIce fog.6 mph80%30.51 "Hg2 mi
1:00 PM23 °FIce fog.6 mph74%30.51 "Hg2 mi
12:30 PM23 °FIce fog.6 mph74%30.51 "Hg2 mi
12:00 PM23 °FIce fog.6 mph74%30.51 "Hg2 mi
11:30 AM21 °FIce fog.8 mph80%30.51 "Hg2 mi
11:00 AM21 °FLight snow. Ice fog.8 mph80%30.48 "Hg2 mi
10:30 AM21 °FMostly cloudy.8 mph80%30.48 "HgN/A
10:00 AM21 °FMostly cloudy.8 mph80%30.48 "HgN/A
9:30 AM21 °FMostly cloudy.8 mph74%30.48 "HgN/A
9:00 AM21 °FMostly cloudy.8 mph80%30.48 "HgN/A
8:30 AM21 °FMostly cloudy.8 mph80%30.48 "HgN/A
8:00 AM21 °FOvercast.6 mph80%30.48 "HgN/A
Weather by CustomWeather, © 2014

See weather overviewHow to use our weather pages